Simultaneous Nadir Overpasses (SNOs) Predictions

Prediction of SNOs between LANDSAT-8 and METOP-B Satellite Orbit:

Table of predicted SNOs for the next 14.0 days since TLE Epoch: 12/25/2021
Index Date (LANDSAT-8) Time (LANDSAT-8) Lat,Lon (LANDSAT-8) SZA (LANDSAT-8 ) Date (METOP-B) Time (METOP-B) Lat,Lon (METOP-B) SZA (METOP-B ) Distance(km) Time Diff (sec)
1 12/25/2021 21:07:30 -81.13, 83.08 73.59 12/25/2021 21:06:17 -81.12, 82.92 73.64 2.89 73
2 12/25/2021 21:56:56 81.14,-109.19 106.43 12/25/2021 21:56:57 81.14,-109.34 106.41 2.54 1
3 12/25/2021 22:46:21 -81.18, 59.11 73.49 12/25/2021 22:47:34 -81.18, 59.30 73.44 3.25 73
4 12/28/2021 16:41:44 -81.13, 149.49 73.75 12/28/2021 16:40:38 -81.13, 149.41 73.79 1.24 66
5 12/28/2021 17:31:09 81.16, -42.45 106.31 12/28/2021 17:31:17 81.15, -42.49 106.31 0.86 8
6 12/31/2021 12:15:56 -81.14,-143.82 73.93 12/31/2021 12:14:57 -81.14,-143.75 73.95 1.28 59
7 12/31/2021 13:05:22 81.15, 23.86 106.07 12/31/2021 13:05:37 81.15, 23.94 106.09 1.57 15
8 01/03/2022 07:50:10 -81.13, -77.56 74.24 01/03/2022 07:49:19 -81.13, -77.70 74.27 2.31 51
9 01/03/2022 08:39:35 81.16, 90.46 105.82 01/03/2022 08:39:58 81.15, 90.34 105.82 2.10 23
10 01/06/2022 03:24:23 -81.14, -11.02 74.56 01/06/2022 03:23:39 -81.14, -10.93 74.56 1.59 44



Historial Predications of SNOs between LANDSAT-8 and METOP-B
